This is the latest recevied weather packets stored in our database for station/object KC2WGU. If no packets are shown the sender has not sent any weather packets the latest 10 day(s).
| Time | Temp. | Humidity | Pressure | Rain* | Wind** | Luminosity | Snow |
|---|---|---|---|---|---|---|---|
| 1777335620 | 16.11° C | 45% | 1019.8 hPa | 0 mm | - | 0 W/m² | - |
| 1777335020 | 17.78° C | 41% | 1019.6 hPa | 0 mm | - | 0 W/m² | - |
| 1777334421 | 17.78° C | 39% | 1019.5 hPa | 0 mm | - | 0 W/m² | - |
| 1777333820 | 18.33° C | 38% | 1019.5 hPa | 0 mm | - | 0 W/m² | - |
| 1777333221 | 18.33° C | 38% | 1019.5 hPa | 0 mm | - | 0 W/m² | - |
| 1777332621 | 18.33° C | 40% | 1019.5 hPa | 0 mm | - | 0 W/m² | - |
| 1777332021 | 18.89° C | 39% | 1019.5 hPa | 0 mm | - | 0 W/m² | - |
| 1777331421 | 18.89° C | 38% | 1019.5 hPa | 0 mm | - | 0 W/m² | - |
| 1777330821 | 19.44° C | 37% | 1019.5 hPa | 0 mm | - | 0 W/m² | - |
| 1777330221 | 20° C | 37% | 1019.6 hPa | 0 mm | - | 0 W/m² | - |
| 1777329621 | 20° C | 38% | 1019.6 hPa | 0 mm | - | 0 W/m² | - |
| 1777329021 | 20.56° C | 38% | 1019.6 hPa | 0 mm | - | 0 W/m² | - |
| 1777328421 | 20.56° C | 36% | 1019.7 hPa | 0 mm | - | 0 W/m² | - |
| 1777327821 | 20.56° C | 36% | 1019.8 hPa | 0 mm | - | 0 W/m² | - |
| 1777327221 | 21.11° C | 38% | 1019.8 hPa | 0 mm | - | 0 W/m² | - |
| 1777326621 | 21.11° C | 36% | 1020 hPa | 0 mm | - | 0 W/m² | - |
| 1777326021 | 21.11° C | 36% | 1020 hPa | 0 mm | - | 0 W/m² | - |
| 1777325421 | 21.11° C | 35% | 1020 hPa | 0 mm | - | 0 W/m² | - |
| 1777324821 | 21.11° C | 36% | 1020 hPa | 0 mm | - | 0 W/m² | - |
| 1777324221 | 21.11° C | 35% | 1020.2 hPa | 0 mm | - | 0 W/m² | - |
| 1777323621 | 21.11° C | 37% | 1020.2 hPa | 0 mm | - | 0 W/m² | - |
| 1777323020 | 21.11° C | 35% | 1020.2 hPa | 0 mm | - | 0 W/m² | - |
| 1777322420 | 21.11° C | 36% | 1020.3 hPa | 0 mm | - | 0 W/m² | - |
| 1777321821 | 21.11° C | 36% | 1020.1 hPa | 0 mm | - | 0 W/m² | - |
| 1777321221 | 21.11° C | 35% | 1020.1 hPa | 0 mm | - | 0 W/m² | - |
* Rain latest hour (hover to see other rain measurements)
** Current wind speed in m/s (hover to see current wind gust speed)